Savannah Hunter, GA

7:51 AM EDT on April 22, 2018 (GMT -0400)
Hunter Army Air Field

Weather History for KSVN - October, 2013

Change the Weather History Date:

Wednesday, October 16, 2013

  Actual Average Record
Temperature  
Mean Temperature 70 °F -  
Max Temperature 80 °F 75 °F 88 °F (2017)
Min Temperature 60 °F 56 °F 46 °F (2003)
Cooling Degree Days 4    
Growing Degree Days 20 (Base 50)    
Moisture  
Dew Point 62 °F    
Average Humidity 79    
Maximum Humidity 97    
Minimum Humidity 56    
Precipitation  
Precipitation 0.00 in - - ()
Sea Level Pressure  
Sea Level Pressure 29.99 in    
Wind  
Wind Speed 4 mph (ENE)    
Max Wind Speed 10 mph    
Max Gust Speed -    
Visibility 10 miles    
Events      
Averages and records for this station are not official NWS values.
T = Trace of Precipitation, MM = Missing Value Source: NWS Daily Summary

Daily Weather History Graph

Daily Weather History Graph

Search for Another Location

Airport or City:

Astronomy

Oct. 16, 2013 Rise Set
Actual Time 7:28 AM EDT 6:50 PM EDT
Civil Twilight 7:04 AM EDT 7:15 PM EDT
Nautical Twilight 6:35 AM EDT 7:43 PM EDT
Astronomical Twilight 6:07 AM EDT 8:12 PM EDT
Moon 5:23 PM EDT (10/16) 5:02 AM EDT (10/16)
Length of Visible Light 12h 11m
Length of Day
11h 21m
Waxing Gibbous, 94% of the Moon is Illuminated
Oct 16
Waxing Gibbous
Oct 18
Full
Oct 26
Last Quarter
Nov 3
New
Nov 10
First Quarter

Hourly Weather History & Observations

Time (EDT) Temp. Dew Point Humidity Pressure Visibility Wind Dir Wind Speed Gust Speed Precip Events Conditions
12:58 AM 61.0 °F 59.7 °F 96% 30.02 in 10.0 mi West 2.3 mph - N/A   Clear
1:58 AM 60.4 °F 59.2 °F 96% 30.01 in 10.0 mi NW 2.3 mph - N/A   Clear
2:58 AM 62.6 °F 60.4 °F 93% 30.00 in 10.0 mi North 5.8 mph - N/A   Clear
3:58 AM 62.1 °F 60.1 °F 93% 29.99 in 10.0 mi North 3.5 mph - N/A   Clear
4:58 AM 61.5 °F 59.7 °F 94% 29.98 in 10.0 mi North 3.5 mph - N/A   Clear
5:58 AM 61.2 °F 59.7 °F 95% 29.99 in 10.0 mi North 3.5 mph - N/A   Clear
6:58 AM 60.8 °F 59.0 °F 94% 30.00 in 10.0 mi North 3.5 mph - N/A   Clear
7:58 AM 61.9 °F 59.9 °F 93% 30.01 in 10.0 mi North 4.6 mph - N/A   Clear
8:58 AM 66.0 °F 62.1 °F 87% 30.02 in 10.0 mi Variable 2.3 mph - N/A   Clear
9:58 AM 70.0 °F 62.2 °F 76% 30.03 in 10.0 mi NE 5.8 mph - N/A   Partly Cloudy
10:58 AM 74.1 °F 63.0 °F 68% 30.02 in 10.0 mi East 4.6 mph - N/A   Clear
11:38 AM 75.2 °F 62.6 °F 65% 30.02 in 10.0 mi East 4.6 mph - N/A   Mostly Cloudy
11:41 AM 77.0 °F 62.6 °F 61% 30.01 in 10.0 mi ENE 5.8 mph - N/A   Scattered Clouds
11:56 AM 75.2 °F 62.6 °F 65% 30.01 in 10.0 mi Variable 5.8 mph - N/A   Scattered Clouds
11:58 AM 75.7 °F 63.1 °F 65% 30.02 in 10.0 mi NNE 5.8 mph - N/A   Scattered Clouds
12:58 PM 77.0 °F 62.2 °F 60% 30.00 in 10.0 mi Variable 1.2 mph - N/A   Partly Cloudy
1:58 PM 79.0 °F 61.9 °F 56% 29.98 in 10.0 mi Variable 2.3 mph - N/A   Scattered Clouds
2:58 PM 79.9 °F 62.8 °F 56% 29.95 in 10.0 mi Variable 6.9 mph - N/A   Scattered Clouds
3:58 PM 78.3 °F 63.7 °F 61% 29.95 in 10.0 mi Variable 3.5 mph - N/A   Partly Cloudy
4:58 PM 77.2 °F 65.1 °F 66% 29.95 in 10.0 mi SSE 10.4 mph - N/A   Clear
5:58 PM 75.0 °F 64.8 °F 70% 29.96 in 10.0 mi East 8.1 mph - N/A   Clear
6:58 PM 71.6 °F 64.0 °F 77% 29.97 in 10.0 mi ESE 5.8 mph - N/A   Clear
7:58 PM 69.6 °F 64.4 °F 83% 29.97 in 10.0 mi SE 4.6 mph - N/A   Clear
8:58 PM 68.7 °F 64.2 °F 86% 29.99 in 10.0 mi SE 2.3 mph - N/A   Clear
9:58 PM 67.8 °F 64.6 °F 89% 30.00 in 10.0 mi East 2.3 mph - N/A   Clear
10:58 PM 66.4 °F 64.4 °F 93% 30.00 in 10.0 mi ESE 2.3 mph - N/A   Clear
11:58 PM 65.5 °F 64.6 °F 97% 29.97 in 10.0 mi Calm Calm - N/A   Clear